Location: Anne Acres
(38.7004°N, 75.0827°W)
Time: 08:46:45
(UTC+00:00)

Courier 1B Rocket - Pass Details

Date: 15 November 2024
Orbit: 920 x 1201 km, 28.2° (Epoch: 06 December)

Event Time Altitude Azimuth Distance (km) Brightness Sun altitude
Rises 23:42:29 0° 260° (W) 3,659 9.5 -22.6°
Reaches altitude 10° 23:45:46 10° 246° (WSW) 2,671 8.3 -23.3°
Maximum altitude 23:50:31 22° 197° (SSW) 1,902 6.7 -24.2°
Enters shadow 23:54:01 14° 157° (SSE) 2,318 6.8 -24.9°
